When you browse on this site, cookies collect data to enhance your experience and personalize the content and advertising you see.
Visit our Privacy Policy to learn more. By continuing to use the site, you agree to this use of cookies and data.
  • In Lithuania
  • List of Countries
  • For 7 days
  • Water Temperature
  • Weather Map
  • Weather Widgets
  • user-avatar
    Login

    Hourly Weather Solwezi

    Today, 15 November, Friday

    Time Temperature Precipitation Wind Pressure Humidity
    00:00 +30°C° 0 mm 3 mps 712 mmHg 14%
    01:00 +29°C° 0 mm 3 mps 712 mmHg 14%
    02:00 +29°C° 0 mm 3 mps 712 mmHg 15%
    03:00 +28°C° 0 mm 4 mps 712 mmHg 16%
    04:00 +28°C° 0 mm 4 mps 712 mmHg 17%
    05:00 +28°C° 0 mm 4 mps 712 mmHg 18%
    06:00 +28°C° 0 mm 4 mps 713 mmHg 19%
    07:00 +29°C° 0 mm 5 mps 714 mmHg 19%
    08:00 +30°C° 0 mm 5 mps 714 mmHg 20%
    09:00 +33°C° 0 mm 6 mps 714 mmHg 18%
    10:00 +35°C° 0 mm 6 mps 715 mmHg 16%
    11:00 +38°C° 0 mm 6 mps 715 mmHg 14%
    12:00 +38°C° 0 mm 6 mps 714 mmHg 13%
    13:00 +39°C° 0 mm 5 mps 713 mmHg 13%
    14:00 +40°C° 0 mm 5 mps 712 mmHg 11%
    15:00 +39°C° 0 mm 5 mps 712 mmHg 12%
    16:00 +39°C° 0 mm 5 mps 712 mmHg 13%
    17:00 +37°C° 0 mm 4 mps 712 mmHg 13%
    18:00 +36°C° 0 mm 4 mps 712 mmHg 15%
    19:00 +35°C° 0 mm 4 mps 712 mmHg 16%
    20:00 +33°C° 0 mm 4 mps 713 mmHg 17%
    21:00 +32°C° 0 mm 4 mps 713 mmHg 18%
    22:00 +32°C° 0 mm 4 mps 713 mmHg 19%
    23:00 +30°C° 0 mm 4 mps 713 mmHg 21%

    Tomorrow, 16 November, Saturday

    Time Temperature Precipitation Wind Pressure Humidity
    00:00 +30°C° 0 mm 4 mps 712 mmHg 23%
    01:00 +29°C° 0 mm 4 mps 712 mmHg 26%
    02:00 +29°C° 0 mm 5 mps 711 mmHg 29%
    03:00 +28°C° 0 mm 5 mps 711 mmHg 30%
    04:00 +28°C° 0 mm 5 mps 711 mmHg 32%
    05:00 +27°C° 0 mm 5 mps 711 mmHg 33%
    06:00 +28°C° 0 mm 6 mps 712 mmHg 33%
    07:00 +29°C° 0 mm 7 mps 712 mmHg 32%
    08:00 +29°C° 0 mm 8 mps 713 mmHg 32%
    09:00 +32°C° 0 mm 8 mps 713 mmHg 28%
    10:00 +34°C° 0 mm 8 mps 713 mmHg 24%
    11:00 +37°C° 0 mm 8 mps 713 mmHg 20%
    12:00 +38°C° 0 mm 7 mps 712 mmHg 19%
    13:00 +39°C° 0 mm 7 mps 712 mmHg 17%
    14:00 +40°C° 0 mm 6 mps 711 mmHg 15%
    15:00 +39°C° 0 mm 6 mps 711 mmHg 16%
    16:00 +39°C° 0 mm 5 mps 711 mmHg 17%
    17:00 +37°C° 0 mm 5 mps 710 mmHg 18%
    18:00 +36°C° 0 mm 5 mps 710 mmHg 19%
    19:00 +35°C° 0 mm 5 mps 711 mmHg 20%
    20:00 +33°C° 0 mm 4 mps 711 mmHg 21%
    21:00 +33°C° 0 mm 4 mps 711 mmHg 23%
    22:00 +32°C° 0 mm 5 mps 711 mmHg 24%
    23:00 +30°C° 0 mm 5 mps 711 mmHg 25%

    Day after tomorrow, 17 November, Sunday

    Time Temperature Precipitation Wind Pressure Humidity
    00:00 +30°C° 0 mm 5 mps 711 mmHg 25%
    01:00 +29°C° 0 mm 6 mps 711 mmHg 25%
    02:00 +29°C° 0 mm 6 mps 710 mmHg 24%
    03:00 +28°C° 0 mm 6 mps 711 mmHg 24%
    04:00 +28°C° 0 mm 6 mps 711 mmHg 24%
    05:00 +27°C° 0 mm 6 mps 711 mmHg 23%
    06:00 +28°C° 0 mm 7 mps 711 mmHg 23%
    07:00 +28°C° 0 mm 7 mps 712 mmHg 23%
    08:00 +29°C° 0 mm 8 mps 712 mmHg 22%
    09:00 +31°C° 0 mm 8 mps 713 mmHg 21%
    10:00 +33°C° 0 mm 8 mps 713 mmHg 20%
    11:00 +34°C° 0 mm 7 mps 713 mmHg 18%
    12:00 +35°C° 0 mm 7 mps 713 mmHg 18%
    13:00 +36°C° 0 mm 6 mps 712 mmHg 17%
    14:00 +38°C° 0 mm 6 mps 711 mmHg 16%
    15:00 +37°C° 0 mm 5 mps 711 mmHg 17%
    16:00 +36°C° 0 mm 5 mps 711 mmHg 17%
    17:00 +36°C° 0 mm 4 mps 711 mmHg 17%
    18:00 +35°C° 0 mm 4 mps 711 mmHg 18%
    19:00 +33°C° 0 mm 4 mps 711 mmHg 19%
    20:00 +31°C° 0 mm 3 mps 712 mmHg 20%
    21:00 +30°C° 0 mm 4 mps 712 mmHg 19%
    22:00 +30°C° 0 mm 4 mps 712 mmHg 19%
    23:00 +29°C° 0 mm 5 mps 712 mmHg 19%

    18 November, Monday

    Time Temperature Precipitation Wind Pressure Humidity
    00:00 +28°C° 0 mm 5 mps 712 mmHg 18%
    01:00 +28°C° 0 mm 5 mps 712 mmHg 18%
    02:00 +27°C° 0 mm 6 mps 712 mmHg 18%
    03:00 +27°C° 0 mm 5 mps 712 mmHg 18%
    04:00 +26°C° 0 mm 5 mps 712 mmHg 19%
    05:00 +25°C° 0 mm 5 mps 712 mmHg 19%
    06:00 +26°C° 0 mm 6 mps 713 mmHg 18%
    07:00 +26°C° 0 mm 7 mps 713 mmHg 17%
    08:00 +27°C° 0 mm 7 mps 714 mmHg 16%
    09:00 +29°C° 0 mm 7 mps 714 mmHg 15%
    10:00 +32°C° 0 mm 7 mps 714 mmHg 13%
    11:00 +34°C° 0 mm 6 mps 714 mmHg 11%
    12:00 +35°C° 0 mm 6 mps 713 mmHg 11%
    13:00 +36°C° 0 mm 6 mps 713 mmHg 10%
    14:00 +36°C° 0 mm 5 mps 712 mmHg 10%
    15:00 +36°C° 0 mm 5 mps 712 mmHg 10%
    16:00 +36°C° 0 mm 5 mps 712 mmHg 10%
    17:00 +35°C° 0 mm 4 mps 712 mmHg 11%
    18:00 +34°C° 0 mm 4 mps 712 mmHg 11%
    19:00 +32°C° 0 mm 4 mps 712 mmHg 12%
    20:00 +30°C° 0 mm 4 mps 712 mmHg 12%
    21:00 +29°C° 0 mm 4 mps 713 mmHg 12%
    22:00 +29°C° 0 mm 4 mps 713 mmHg 13%
    23:00 +28°C° 0 mm 4 mps 713 mmHg 13%

    19 November, Tuesday

    Time Temperature Precipitation Wind Pressure Humidity
    00:00 +27°C° 0 mm 4 mps 713 mmHg 14%
    01:00 +26°C° 0 mm 5 mps 713 mmHg 14%
    02:00 +26°C° 0 mm 5 mps 712 mmHg 15%
    03:00 +25°C° 0 mm 5 mps 713 mmHg 15%
    04:00 +23°C° 0 mm 5 mps 713 mmHg 16%
    05:00 +23°C° 0 mm 5 mps 713 mmHg 17%
    06:00 +23°C° 0 mm 6 mps 714 mmHg 17%
    07:00 +24°C° 0 mm 6 mps 714 mmHg 17%
    08:00 +26°C° 0 mm 7 mps 715 mmHg 17%
    09:00 +28°C° 0 mm 7 mps 715 mmHg 15%
    10:00 +30°C° 0 mm 7 mps 715 mmHg 14%
    11:00 +33°C° 0 mm 6 mps 715 mmHg 13%
    12:00 +34°C° 0 mm 6 mps 714 mmHg 12%
    13:00 +35°C° 0 mm 5 mps 713 mmHg 11%
    14:00 +36°C° 0 mm 5 mps 712 mmHg 11%
    15:00 +36°C° 0 mm 4 mps 712 mmHg 11%
    16:00 +36°C° 0 mm 4 mps 712 mmHg 11%
    17:00 +35°C° 0 mm 4 mps 712 mmHg 12%
    18:00 +34°C° 0 mm 4 mps 712 mmHg 12%
    19:00 +33°C° 0 mm 4 mps 712 mmHg 12%
    20:00 +30°C° 0 mm 4 mps 712 mmHg 12%
    21:00 +29°C° 0 mm 4 mps 712 mmHg 12%
    22:00 +29°C° 0 mm 4 mps 713 mmHg 13%
    23:00 +28°C° 0 mm 4 mps 713 mmHg 13%

    20 November, Wednesday

    Time Temperature Precipitation Wind Pressure Humidity
    00:00 +27°C° 0 mm 4 mps 713 mmHg 15%
    01:00 +27°C° 0 mm 5 mps 713 mmHg 18%
    02:00 +26°C° 0 mm 5 mps 712 mmHg 20%
    03:00 +25°C° 0 mm 5 mps 712 mmHg 21%
    04:00 +25°C° 0 mm 5 mps 713 mmHg 21%
    05:00 +25°C° 0 mm 5 mps 713 mmHg 22%
    06:00 +24°C° 0 mm 6 mps 713 mmHg 22%
    07:00 +26°C° 0 mm 6 mps 713 mmHg 21%
    08:00 +26°C° 0 mm 7 mps 714 mmHg 21%
    09:00 +28°C° 0 mm 7 mps 714 mmHg 19%
    10:00 +32°C° 0 mm 7 mps 714 mmHg 16%
    11:00 +34°C° 0 mm 7 mps 714 mmHg 14%
    12:00 +35°C° 0 mm 6 mps 714 mmHg 13%
    13:00 +36°C° 0 mm 6 mps 713 mmHg 12%
    14:00 +38°C° 0 mm 6 mps 712 mmHg 10%
    15:00 +36°C° 0 mm 6 mps 712 mmHg 11%
    16:00 +35°C° 0 mm 5 mps 712 mmHg 12%
    17:00 +35°C° 0 mm 5 mps 711 mmHg 12%
    18:00 +33°C° 0 mm 5 mps 712 mmHg 13%
    19:00 +32°C° 0 mm 4 mps 712 mmHg 14%
    20:00 +29°C° 0 mm 4 mps 712 mmHg 15%
    21:00 +29°C° 0 mm 4 mps 712 mmHg 16%
    22:00 +28°C° 0 mm 4 mps 712 mmHg 17%
    23:00 +27°C° 0 mm 5 mps 712 mmHg 18%
    Show more